Volver al catálogo

STARLINK-4193

ActivoComunicacionesVLEO
NORAD 52875·PAYLOAD·🇺🇸 United States

Lanzado Jun 17, 2022 desde Cape Canaveral Space Force Station

Loading…

Próximos Pases (próximas 24 horas)

TLE

ActualizadoSource: CelesTrak SupGP

Época: Sep 15, 2026, 01:49 UTC

1 52875C 22062AX  26258.07618056 -.00026802  00000+0 -79187-3 0  2587
2 52875  53.1563 228.7693 0001547  84.9034 229.1782 15.34404118    17

Sigue STARLINK-4193 en tiempo real con AllMySat

Download on the App Store